Hourly Weather Muyinga

Today, 3 July, Friday

Time Temperature Precipitation Wind Pressure Humidity
00:00 +16°C° 0 mm 1 mps 628 mmHg 70%
01:00 +16°C° 0 mm 1 mps 627 mmHg 73%
02:00 +15°C° 0 mm 1 mps 627 mmHg 75%
03:00 +15°C° 0 mm 1 mps 627 mmHg 77%
04:00 +15°C° 0 mm 1 mps 627 mmHg 79%
05:00 +14°C° 0 mm 1 mps 627 mmHg 81%
06:00 +16°C° 0 mm 1 mps 628 mmHg 74%
07:00 +19°C° 0 mm 1 mps 629 mmHg 67%
08:00 +20°C° 0 mm 2 mps 630 mmHg 60%
09:00 +21°C° 0 mm 2 mps 631 mmHg 54%
10:00 +24°C° 0 mm 3 mps 631 mmHg 48%
11:00 +26°C° 0 mm 3 mps 631 mmHg 42%
12:00 +27°C° 0 mm 3 mps 631 mmHg 40%
13:00 +27°C° 0 mm 3 mps 630 mmHg 38%
14:00 +28°C° 0 mm 3 mps 630 mmHg 36%
15:00 +27°C° 0 mm 3 mps 629 mmHg 38%
16:00 +27°C° 0 mm 2 mps 629 mmHg 40%
17:00 +26°C° 0 mm 2 mps 628 mmHg 42%
18:00 +24°C° 0 mm 2 mps 628 mmHg 47%
19:00 +23°C° 0 mm 1 mps 628 mmHg 51%
20:00 +21°C° 0 mm 1 mps 628 mmHg 56%
21:00 +20°C° 0 mm 1 mps 628 mmHg 58%
22:00 +19°C° 0 mm 1 mps 628 mmHg 60%
23:00 +19°C° 0 mm 1 mps 628 mmHg 62%

Tomorrow, 4 July, Saturday

Time Temperature Precipitation Wind Pressure Humidity
00:00 +18°C° 0 mm 1 mps 628 mmHg 64%
01:00 +18°C° 0 mm 1 mps 628 mmHg 66%
02:00 +16°C° 0 mm 1 mps 627 mmHg 68%
03:00 +16°C° 0 mm 1 mps 628 mmHg 67%
04:00 +18°C° 0 mm 1 mps 628 mmHg 66%
05:00 +18°C° 0 mm 1 mps 628 mmHg 65%
06:00 +18°C° 0 mm 2 mps 629 mmHg 62%
07:00 +18°C° 0 mm 3 mps 629 mmHg 59%
08:00 +19°C° 0 mm 4 mps 630 mmHg 56%
09:00 +21°C° 0 mm 4 mps 630 mmHg 51%
10:00 +22°C° 0 mm 4 mps 631 mmHg 47%
11:00 +25°C° 0 mm 3 mps 631 mmHg 43%
12:00 +26°C° 0 mm 3 mps 631 mmHg 41%
13:00 +27°C° 0 mm 3 mps 630 mmHg 39%
14:00 +28°C° 0 mm 2 mps 630 mmHg 37%
15:00 +27°C° 0 mm 2 mps 630 mmHg 39%
16:00 +26°C° 0 mm 2 mps 629 mmHg 42%
17:00 +25°C° 0 mm 1 mps 629 mmHg 44%
18:00 +23°C° 0 mm 1 mps 629 mmHg 49%
19:00 +22°C° 0 mm 1 mps 628 mmHg 54%
20:00 +20°C° 0 mm 1 mps 628 mmHg 59%
21:00 +19°C° 0 mm 1 mps 628 mmHg 60%
22:00 +19°C° 0 mm 1 mps 628 mmHg 61%
23:00 +18°C° 0 mm 1 mps 628 mmHg 62%

Day after tomorrow, 5 July, Sunday

Time Temperature Precipitation Wind Pressure Humidity
00:00 +18°C° 0 mm 1 mps 628 mmHg 63%
01:00 +16°C° 0 mm 1 mps 627 mmHg 64%
02:00 +16°C° 0 mm 1 mps 627 mmHg 65%
03:00 +16°C° 0 mm 1 mps 627 mmHg 67%
04:00 +15°C° 0 mm 1 mps 627 mmHg 69%
05:00 +15°C° 0 mm 1 mps 626 mmHg 70%
06:00 +16°C° 0 mm 2 mps 628 mmHg 64%
07:00 +18°C° 0 mm 3 mps 629 mmHg 58%
08:00 +19°C° 0 mm 4 mps 630 mmHg 52%
09:00 +21°C° 0 mm 3 mps 630 mmHg 48%
10:00 +22°C° 0 mm 3 mps 630 mmHg 44%
11:00 +25°C° 0 mm 3 mps 631 mmHg 40%
12:00 +26°C° 0 mm 3 mps 631 mmHg 37%
13:00 +27°C° 0 mm 2 mps 630 mmHg 35%
14:00 +28°C° 0 mm 2 mps 630 mmHg 32%
15:00 +27°C° 0 mm 2 mps 629 mmHg 34%
16:00 +27°C° 0 mm 2 mps 629 mmHg 36%
17:00 +26°C° 0 mm 2 mps 628 mmHg 37%
18:00 +24°C° 0 mm 1 mps 628 mmHg 43%
19:00 +21°C° 0 mm 1 mps 628 mmHg 49%
20:00 +19°C° 0 mm 1 mps 628 mmHg 55%
21:00 +18°C° 0 mm 1 mps 627 mmHg 56%
22:00 +18°C° 0 mm 1 mps 627 mmHg 57%
23:00 +16°C° 0 mm 1 mps 627 mmHg 58%

6 July, Monday

Time Temperature Precipitation Wind Pressure Humidity
00:00 +16°C° 0 mm 1 mps 627 mmHg 59%
01:00 +15°C° 0 mm 1 mps 627 mmHg 60%
02:00 +15°C° 0 mm 1 mps 626 mmHg 60%
03:00 +15°C° 0 mm 1 mps 626 mmHg 61%
04:00 +14°C° 0 mm 1 mps 626 mmHg 62%
05:00 +14°C° 0 mm 1 mps 626 mmHg 62%
06:00 +15°C° 0 mm 2 mps 627 mmHg 58%
07:00 +17°C° 0 mm 2 mps 628 mmHg 54%
08:00 +18°C° 0 mm 3 mps 629 mmHg 50%
09:00 +20°C° 0 mm 3 mps 629 mmHg 46%
10:00 +22°C° 0 mm 3 mps 630 mmHg 43%
11:00 +24°C° 0 mm 3 mps 630 mmHg 39%
12:00 +25°C° 0 mm 3 mps 630 mmHg 36%
13:00 +26°C° 0 mm 3 mps 629 mmHg 33%
14:00 +27°C° 0 mm 2 mps 629 mmHg 30%
15:00 +26°C° 0 mm 2 mps 628 mmHg 32%
16:00 +26°C° 0 mm 2 mps 628 mmHg 34%
17:00 +25°C° 0 mm 2 mps 628 mmHg 36%
18:00 +23°C° 0 mm 2 mps 627 mmHg 40%
19:00 +20°C° 0 mm 2 mps 627 mmHg 44%
20:00 +19°C° 0 mm 1 mps 627 mmHg 49%
21:00 +18°C° 0 mm 1 mps 627 mmHg 50%
22:00 +18°C° 0 mm 1 mps 627 mmHg 52%
23:00 +16°C° 0 mm 1 mps 628 mmHg 54%

7 July, Tuesday

Time Temperature Precipitation Wind Pressure Humidity
00:00 +16°C° 0 mm 1 mps 627 mmHg 54%
01:00 +16°C° 0 mm 1 mps 627 mmHg 55%
02:00 +15°C° 0 mm 1 mps 626 mmHg 56%
03:00 +15°C° 0 mm 1 mps 627 mmHg 55%
04:00 +16°C° 0 mm 1 mps 627 mmHg 53%
05:00 +16°C° 0 mm 1 mps 627 mmHg 52%
06:00 +16°C° 0 mm 1 mps 628 mmHg 51%
07:00 +17°C° 0 mm 2 mps 628 mmHg 50%
08:00 +18°C° 0 mm 2 mps 629 mmHg 49%
09:00 +20°C° 0 mm 2 mps 630 mmHg 44%
10:00 +22°C° 0 mm 3 mps 630 mmHg 40%
11:00 +25°C° 0 mm 3 mps 631 mmHg 35%
12:00 +26°C° 0 mm 3 mps 631 mmHg 33%
13:00 +27°C° 0 mm 3 mps 630 mmHg 32%
14:00 +28°C° 0 mm 3 mps 630 mmHg 30%
15:00 +27°C° 0 mm 2 mps 629 mmHg 33%
16:00 +26°C° 0 mm 2 mps 629 mmHg 35%
17:00 +26°C° 0 mm 2 mps 628 mmHg 37%
18:00 +24°C° 0 mm 2 mps 628 mmHg 42%
19:00 +22°C° 0 mm 1 mps 628 mmHg 47%
20:00 +19°C° 0 mm 1 mps 628 mmHg 52%
21:00 +19°C° 0 mm 1 mps 628 mmHg 54%
22:00 +18°C° 0 mm 1 mps 628 mmHg 55%
23:00 +18°C° 0 mm 1 mps 628 mmHg 56%

8 July, Wednesday

Time Temperature Precipitation Wind Pressure Humidity
00:00 +18°C° 0 mm 1 mps 628 mmHg 58%
01:00 +16°C° 0 mm 1 mps 627 mmHg 59%
02:00 +16°C° 0 mm 1 mps 627 mmHg 60%
03:00 +15°C° 0 mm 1 mps 627 mmHg 62%
04:00 +15°C° 0 mm 1 mps 627 mmHg 63%
05:00 +13°C° 0 mm 0 mps 627 mmHg 65%
06:00 +16°C° 0 mm 1 mps 628 mmHg 59%
07:00 +19°C° 0 mm 1 mps 629 mmHg 53%
08:00 +21°C° 0 mm 1 mps 630 mmHg 47%
09:00 +23°C° 0 mm 2 mps 631 mmHg 45%
10:00 +25°C° 0 mm 3 mps 631 mmHg 42%
11:00 +26°C° 0 mm 3 mps 632 mmHg 40%
12:00 +27°C° 0 mm 3 mps 631 mmHg 39%
13:00 +27°C° 0 mm 3 mps 630 mmHg 37%
14:00 +28°C° 0 mm 3 mps 630 mmHg 36%
15:00 +27°C° 0 mm 2 mps 630 mmHg 38%
16:00 +27°C° 0 mm 2 mps 629 mmHg 39%
17:00 +26°C° 0 mm 2 mps 629 mmHg 41%
18:00 +24°C° 0 mm 1 mps 629 mmHg 45%
19:00 +23°C° 0 mm 1 mps 628 mmHg 49%
20:00 +21°C° 0 mm 1 mps 628 mmHg 53%
21:00 +20°C° 0 mm 1 mps 628 mmHg 54%
22:00 +20°C° 0 mm 1 mps 628 mmHg 56%
23:00 +19°C° 0 mm 1 mps 628 mmHg 57%
Show more